START_TIME,STEP,MOV.,P11,t_acc.,P23,t_acc.,P27,t_acc.,A4,t_acc.
1979-08-06 21:00:21.590 ,0,0,2.,4.8,1.,4.8,1.,4.8,0.,4.8
1979-08-06 21:00:26.390 ,0,0,1.,4.8,1.,4.8,0.,4.8,0.,4.8
1979-08-06 21:00:31.190 ,0,0,4.,4.8,0.,4.8,0.,4.8,0.,4.8
1979-08-06 21:00:35.990 ,0,0,1.,4.8,0.,4.8,2.,4.8,0.,4.8
1979-08-06 21:00:40.790 ,0,0,2.,4.8,0.,4.8,2.,4.8,0.,4.8
1979-08-06 21:00:45.590 ,0,0,2.,4.8,2.,4.8,0.,4.8,0.,4.8
1979-08-06 21:00:50.390 ,0,0,5.,4.8,0.,4.8,1.,4.8,0.,4.8
1979-08-06 21:00:55.190 ,0,0,4.,4.8,2.,4.8,2.,4.8,0.,4.8
1979-08-06 21:00:59.990 ,0,0,3.,4.8,1.,4.8,0.,4.8,0.,4.8
1979-08-06 21:01:04.790 ,0,0,4.,4.8,1.,4.8,0.,4.8,0.,4.8
1979-08-06 21:01:09.590 ,0,0,1.,4.8,1.,4.8,0.,4.8,0.,4.8
1979-08-06 21:01:14.390 ,0,0,4.,4.8,0.,4.8,1.,4.8,0.,4.8
1979-08-06 21:01:19.190 ,0,0,0.,4.8,1.,4.8,2.,4.8,0.,4.8
1979-08-06 21:01:23.990 ,0,0,4.,4.8,0.,4.8,1.,4.8,0.,4.8
1979-08-06 21:01:28.790 ,0,0,3.,4.8,0.,4.8,1.,4.8,0.,4.8
1979-08-06 21:01:33.590 ,1,0,2.,4.8,0.,4.8,1.,4.8,0.,4.8
1979-08-06 21:01:38.390 ,1,0,6.,4.8,0.,4.8,0.,4.8,0.,4.8
1979-08-06 21:01:43.190 ,1,0,2.,4.8,1.,4.8,0.,4.8,0.,4.8
1979-08-06 21:01:47.990 ,1,0,1.,4.8,0.,4.8,1.,4.8,0.,4.8
1979-08-06 21:01:52.790 ,1,0,4.,4.8,1.,4.8,1.,4.8,0.,4.8
1979-08-06 21:01:57.590 ,1,0,3.,4.8,3.,4.8,1.,4.8,0.,4.8
1979-08-06 21:02:02.390 ,1,0,2.,4.8,2.,4.8,1.,4.8,0.,4.8
1979-08-06 21:02:07.190 ,1,0,3.,4.8,0.,4.8,0.,4.8,0.,4.8
1979-08-06 21:02:11.990 ,1,0,4.,4.8,0.,4.8,1.,4.8,0.,4.8
1979-08-06 21:02:16.790 ,1,0,4.,4.8,1.,4.8,0.,4.8,0.,4.8
1979-08-06 21:02:21.590 ,2,0,2.,4.8,2.,4.8,0.,4.8,0.,4.8
1979-08-06 21:02:26.390 ,2,0,1.,4.8,1.,4.8,0.,4.8,0.,4.8
1979-08-06 21:02:31.190 ,2,0,1.,4.8,0.,4.8,0.,4.8,0.,4.8
1979-08-06 21:02:35.990 ,2,0,3.,4.8,1.,4.8,0.,4.8,0.,4.8
1979-08-06 21:02:40.790 ,2,0,3.,4.8,0.,4.8,1.,4.8,0.,4.8
1979-08-06 21:02:45.590 ,2,0,6.,4.8,0.,4.8,0.,4.8,0.,4.8
1979-08-06 21:02:50.390 ,2,0,4.,4.8,1.,4.8,2.,4.8,0.,4.8
1979-08-06 21:02:55.190 ,2,0,3.,4.8,1.,4.8,2.,4.8,0.,4.8
1979-08-06 21:02:59.990 ,2,0,8.,4.8,1.,4.8,0.,4.8,0.,4.8
1979-08-06 21:03:04.790 ,2,0,2.,4.8,0.,4.8,1.,4.8,0.,4.8
1979-08-06 21:03:09.590 ,3,0,0.,4.8,1.,4.8,2.,4.8,0.,4.8
1979-08-06 21:03:14.390 ,3,0,2.,4.8,0.,4.8,0.,4.8,0.,4.8
1979-08-06 21:03:19.190 ,3,0,7.,4.8,1.,4.8,1.,4.8,0.,4.8
1979-08-06 21:03:23.990 ,3,0,2.,4.8,0.,4.8,0.,4.8,0.,4.8
1979-08-06 21:03:28.790 ,3,0,0.,4.8,0.,4.8,0.,4.8,0.,4.8
1979-08-06 21:03:33.590 ,3,0,4.,4.8,0.,4.8,0.,4.8,0.,4.8
1979-08-06 21:03:38.390 ,3,0,1.,4.8,0.,4.8,1.,4.8,0.,4.8
1979-08-06 21:03:43.190 ,3,0,7.,4.8,0.,4.8,0.,4.8,0.,4.8
1979-08-06 21:03:47.990 ,3,0,1.,4.8,0.,4.8,0.,4.8,0.,4.8
1979-08-06 21:03:52.790 ,3,0,2.,4.8,0.,4.8,1.,4.8,0.,4.8
1979-08-06 21:03:57.590 ,4,0,1.,4.8,0.,4.8,1.,4.8,0.,4.8
1979-08-06 21:04:02.390 ,4,0,6.,4.8,0.,4.8,0.,4.8,0.,4.8
1979-08-06 21:04:07.190 ,4,0,2.,4.8,0.,4.8,0.,4.8,0.,4.8
1979-08-06 21:04:11.990 ,4,0,0.,4.8,0.,4.8,0.,4.8,0.,4.8
1979-08-06 21:04:16.790 ,4,0,2.,4.8,1.,4.8,0.,4.8,0.,4.8
1979-08-06 21:04:21.590 ,4,0,3.,4.8,0.,4.8,0.,4.8,0.,4.8
1979-08-06 21:04:26.390 ,4,0,1.,4.8,1.,4.8,1.,4.8,0.,4.8
1979-08-06 21:04:31.190 ,4,0,2.,4.8,1.,4.8,0.,4.8,0.,4.8
1979-08-06 21:04:35.990 ,4,0,3.,4.8,0.,4.8,0.,4.8,0.,4.8
1979-08-06 21:04:40.790 ,4,0,3.,4.8,1.,4.8,0.,4.8,0.,4.8
1979-08-06 21:04:45.590 ,5,0,1.,4.8,2.,4.8,0.,4.8,0.,4.8
1979-08-06 21:04:50.390 ,5,0,1.,4.8,2.,4.8,0.,4.8,0.,4.8
1979-08-06 21:04:55.190 ,5,0,2.,4.8,0.,4.8,0.,4.8,0.,4.8
1979-08-06 21:04:59.990 ,5,0,2.,4.8,0.,4.8,0.,4.8,0.,4.8
1979-08-06 21:05:04.790 ,5,0,3.,4.8,1.,4.8,1.,4.8,0.,4.8
1979-08-06 21:05:09.590 ,5,0,3.,4.8,2.,4.8,0.,4.8,0.,4.8
1979-08-06 21:05:14.390 ,5,0,7.,4.8,1.,4.8,1.,4.8,0.,4.8
1979-08-06 21:05:19.190 ,5,0,2.,4.8,0.,4.8,0.,4.8,0.,4.8
1979-08-06 21:05:23.990 ,5,0,1.,4.8,0.,4.8,1.,4.8,0.,4.8
1979-08-06 21:05:28.790 ,5,0,3.,4.8,0.,4.8,0.,4.8,0.,4.8
1979-08-06 21:05:33.590 ,6,0,0.,4.8,0.,4.8,1.,4.8,0.,4.8
1979-08-06 21:05:38.390 ,6,0,3.,4.8,1.,4.8,0.,4.8,0.,4.8
1979-08-06 21:05:43.190 ,6,0,1.,4.8,2.,4.8,0.,4.8,0.,4.8
1979-08-06 21:05:47.990 ,6,0,1.,4.8,1.,4.8,0.,4.8,0.,4.8
1979-08-06 21:05:52.790 ,6,0,4.,4.8,0.,4.8,0.,4.8,0.,4.8
1979-08-06 21:05:57.590 ,6,0,2.,4.8,1.,4.8,0.,4.8,0.,4.8
1979-08-06 21:06:02.390 ,6,0,4.,4.8,1.,4.8,2.,4.8,0.,4.8
1979-08-06 21:06:07.190 ,6,0,2.,4.8,3.,4.8,1.,4.8,0.,4.8
1979-08-06 21:06:11.990 ,6,0,0.,4.8,0.,4.8,0.,4.8,0.,4.8
1979-08-06 21:06:16.790 ,6,0,4.,4.8,0.,4.8,0.,4.8,0.,4.8
1979-08-06 21:06:21.590 ,7,0,4.,4.8,1.,4.8,1.,4.8,0.,4.8
1979-08-06 21:06:26.390 ,7,0,2.,4.8,0.,4.8,0.,4.8,0.,4.8
1979-08-06 21:06:31.190 ,7,0,1.,4.8,1.,4.8,1.,4.8,0.,4.8
1979-08-06 21:06:35.990 ,7,0,4.,4.8,0.,4.8,0.,4.8,0.,4.8
1979-08-06 21:06:40.790 ,7,0,4.,4.8,0.,4.8,0.,4.8,0.,4.8
1979-08-06 21:06:45.590 ,7,0,0.,4.8,0.,4.8,0.,4.8,0.,4.8
1979-08-06 21:06:50.390 ,7,0,0.,4.8,0.,4.8,0.,4.8,0.,4.8
1979-08-06 21:06:55.190 ,7,0,1.,4.8,0.,4.8,1.,4.8,0.,4.8
1979-08-06 21:06:59.990 ,7,0,0.,4.8,2.,4.8,0.,4.8,0.,4.8
1979-08-06 21:07:04.790 ,7,0,1.,4.8,1.,4.8,0.,4.8,0.,4.8
1979-08-06 21:07:09.590 ,3,1,1.,4.8,1.,4.8,2.,4.8,0.,4.8
1979-08-06 21:07:14.390 ,3,1,5.,4.8,0.,4.8,0.,4.8,0.,4.8
1979-08-06 21:07:19.190 ,3,1,1.,4.8,1.,4.8,2.,4.8,0.,4.8
1979-08-06 21:07:23.990 ,3,1,2.,4.8,2.,4.8,0.,4.8,0.,4.8
1979-08-06 21:07:28.790 ,3,1,4.,4.8,0.,4.8,0.,4.8,0.,4.8
1979-08-06 21:07:33.590 ,0,1,4.,4.8,0.,4.8,0.,4.8,0.,4.8
1979-08-06 21:07:38.390 ,0,1,4.,4.8,0.,4.8,1.,4.8,0.,4.8
1979-08-06 21:07:43.190 ,0,1,7.,4.8,1.,4.8,1.,4.8,0.,4.8
1979-08-06 21:07:47.990 ,0,1,4.,4.8,2.,4.8,0.,4.8,0.,4.8
1979-08-06 21:07:52.790 ,0,1,5.,4.8,1.,4.8,1.,4.8,0.,4.8
1979-08-06 21:07:57.590 ,4,1,1.,4.8,0.,4.8,0.,4.8,0.,4.8
1979-08-06 21:08:02.390 ,4,1,2.,4.8,0.,4.8,1.,4.8,0.,4.8
1979-08-06 21:08:07.190 ,4,1,0.,4.8,4.,4.8,1.,4.8,0.,4.8
1979-08-06 21:08:11.990 ,4,1,3.,4.8,0.,4.8,0.,4.8,0.,4.8
1979-08-06 21:08:16.790 ,4,1,7.,4.8,0.,4.8,1.,4.8,0.,4.8
1979-08-06 21:08:21.590 ,7,1,5.,4.8,0.,4.8,0.,4.8,0.,4.8
1979-08-06 21:08:26.390 ,7,1,2.,4.8,0.,4.8,0.,4.8,0.,4.8
1979-08-06 21:08:31.190 ,7,1,2.,4.8,0.,4.8,0.,4.8,0.,4.8
1979-08-06 21:08:35.990 ,7,1,1.,4.8,1.,4.8,0.,4.8,0.,4.8
1979-08-06 21:08:40.790 ,7,1,3.,4.8,0.,4.8,0.,4.8,0.,4.8
1979-08-06 21:08:45.590 ,3,1,1.,4.8,1.,4.8,0.,4.8,0.,4.8
1979-08-06 21:08:50.390 ,3,1,1.,4.8,0.,4.8,2.,4.8,0.,4.8
1979-08-06 21:08:55.190 ,3,1,5.,4.8,3.,4.8,1.,4.8,0.,4.8
1979-08-06 21:08:59.990 ,3,1,4.,4.8,0.,4.8,0.,4.8,0.,4.8
1979-08-06 21:09:04.790 ,3,1,1.,4.8,0.,4.8,1.,4.8,0.,4.8
1979-08-06 21:09:09.590 ,0,1,0.,4.8,1.,4.8,1.,4.8,0.,4.8
1979-08-06 21:09:14.390 ,0,1,2.,4.8,0.,4.8,0.,4.8,0.,4.8
1979-08-06 21:09:19.190 ,0,1,3.,4.8,0.,4.8,0.,4.8,0.,4.8
1979-08-06 21:09:23.990 ,0,1,1.,4.8,0.,4.8,0.,4.8,0.,4.8
1979-08-06 21:09:28.790 ,0,1,11.,4.8,1.,4.8,2.,4.8,0.,4.8
1979-08-06 21:09:33.590 ,4,1,2.,4.8,1.,4.8,2.,4.8,0.,4.8
1979-08-06 21:09:38.390 ,4,1,7.,4.8,0.,4.8,1.,4.8,0.,4.8
1979-08-06 21:09:43.190 ,4,1,3.,4.8,1.,4.8,2.,4.8,0.,4.8
1979-08-06 21:09:47.990 ,4,1,1.,4.8,0.,4.8,0.,4.8,0.,4.8
1979-08-06 21:09:52.790 ,4,1,3.,4.8,0.,4.8,1.,4.8,0.,4.8
1979-08-06 21:09:57.590 ,7,1,0.,4.8,1.,4.8,3.,4.8,0.,4.8
1979-08-06 21:10:02.390 ,7,1,4.,4.8,0.,4.8,0.,4.8,0.,4.8
1979-08-06 21:10:07.190 ,7,1,2.,4.8,1.,4.8,1.,4.8,0.,4.8
1979-08-06 21:10:11.990 ,7,1,2.,4.8,0.,4.8,0.,4.8,0.,4.8
1979-08-06 21:10:16.790 ,7,1,0.,4.8,0.,4.8,1.,4.8,0.,4.8
1979-08-06 21:10:21.590 ,3,1,2.,4.8,0.,4.8,0.,4.8,0.,4.8
1979-08-06 21:10:26.390 ,3,1,4.,4.8,1.,4.8,0.,4.8,0.,4.8
1979-08-06 21:10:31.190 ,3,1,0.,4.8,0.,4.8,0.,4.8,0.,4.8
1979-08-06 21:10:35.990 ,3,1,3.,4.8,0.,4.8,0.,4.8,0.,4.8
1979-08-06 21:10:40.790 ,3,1,1.,4.8,0.,4.8,1.,4.8,1.,4.8
1979-08-06 21:10:45.590 ,0,1,3.,4.8,0.,4.8,0.,4.8,0.,4.8
1979-08-06 21:10:50.390 ,0,1,3.,4.8,0.,4.8,1.,4.8,0.,4.8
1979-08-06 21:10:55.190 ,0,1,2.,4.8,0.,4.8,0.,4.8,0.,4.8
1979-08-06 21:10:59.990 ,0,1,4.,4.8,1.,4.8,1.,4.8,0.,4.8
1979-08-06 21:11:04.790 ,0,1,2.,4.8,0.,4.8,0.,4.8,0.,4.8
1979-08-06 21:11:09.590 ,4,1,3.,4.8,0.,4.8,2.,4.8,0.,4.8
1979-08-06 21:11:14.390 ,4,1,1.,4.8,0.,4.8,0.,4.8,0.,4.8
1979-08-06 21:11:19.190 ,4,1,2.,4.8,2.,4.8,0.,4.8,0.,4.8
1979-08-06 21:11:23.990 ,4,1,2.,4.8,0.,4.8,3.,4.8,0.,4.8
1979-08-06 21:11:28.790 ,4,1,4.,4.8,0.,4.8,0.,4.8,0.,4.8
1979-08-06 21:11:33.590 ,7,1,4.,4.8,2.,4.8,0.,4.8,0.,4.8
1979-08-06 21:11:38.390 ,7,1,2.,4.8,0.,4.8,1.,4.8,0.,4.8
1979-08-06 21:11:43.190 ,7,1,1.,4.8,1.,4.8,0.,4.8,0.,4.8
1979-08-06 21:11:47.990 ,7,1,0.,4.8,1.,4.8,2.,4.8,0.,4.8
1979-08-06 21:11:52.790 ,7,1,1.,4.8,1.,4.8,0.,4.8,0.,4.8
1979-08-06 21:11:57.590 ,3,1,3.,4.8,1.,4.8,0.,4.8,0.,4.8
1979-08-06 21:12:02.390 ,3,1,0.,4.8,0.,4.8,1.,4.8,0.,4.8
1979-08-06 21:12:07.190 ,3,1,1.,4.8,0.,4.8,0.,4.8,0.,4.8
1979-08-06 21:12:11.990 ,3,1,4.,4.8,1.,4.8,1.,4.8,0.,4.8
1979-08-06 21:12:16.790 ,3,1,4.,4.8,0.,4.8,0.,4.8,0.,4.8
1979-08-06 21:12:21.590 ,0,1,2.,4.8,0.,4.8,0.,4.8,0.,4.8
1979-08-06 21:12:26.390 ,0,1,3.,4.8,1.,4.8,0.,4.8,0.,4.8
1979-08-06 21:12:31.190 ,0,1,4.,4.8,0.,4.8,0.,4.8,0.,4.8
1979-08-06 21:12:35.990 ,0,1,1.,4.8,0.,4.8,0.,4.8,0.,4.8
1979-08-06 21:12:40.790 ,0,1,1.,4.8,2.,4.8,1.,4.8,0.,4.8
1979-08-06 21:12:45.590 ,4,1,5.,4.8,1.,4.8,0.,4.8,0.,4.8
1979-08-06 21:12:50.390 ,4,1,1.,4.8,1.,4.8,1.,4.8,0.,4.8
1979-08-06 21:12:55.190 ,4,1,4.,4.8,0.,4.8,2.,4.8,0.,4.8
1979-08-06 21:12:59.990 ,4,1,3.,4.8,0.,4.8,0.,4.8,0.,4.8
1979-08-06 21:13:04.790 ,4,1,5.,4.8,0.,4.8,0.,4.8,0.,4.8
1979-08-06 21:13:09.590 ,7,1,1.,4.8,0.,4.8,1.,4.8,0.,4.8
1979-08-06 21:13:14.390 ,7,1,2.,4.8,1.,4.8,1.,4.8,0.,4.8
1979-08-06 21:13:19.190 ,7,1,4.,4.8,0.,4.8,1.,4.8,0.,4.8
1979-08-06 21:13:23.990 ,7,1,1.,4.8,0.,4.8,0.,4.8,0.,4.8
1979-08-06 21:13:28.790 ,7,1,0.,4.8,0.,4.8,0.,4.8,0.,4.8
1979-08-06 21:13:33.590 ,3,1,0.,4.8,1.,4.8,1.,4.8,0.,4.8
1979-08-06 21:13:38.390 ,3,1,2.,4.8,0.,4.8,1.,4.8,0.,4.8
1979-08-06 21:13:43.190 ,3,1,2.,4.8,0.,4.8,0.,4.8,0.,4.8
1979-08-06 21:13:47.990 ,3,1,2.,4.8,0.,4.8,0.,4.8,0.,4.8
1979-08-06 21:13:52.790 ,3,1,5.,4.8,1.,4.8,2.,4.8,0.,4.8
1979-08-06 21:13:57.590 ,0,1,1.,4.8,0.,4.8,0.,4.8,0.,4.8
1979-08-06 21:14:02.390 ,0,1,1.,4.8,0.,4.8,0.,4.8,0.,4.8
1979-08-06 21:14:07.190 ,0,1,2.,4.8,2.,4.8,1.,4.8,0.,4.8
1979-08-06 21:14:11.990 ,0,1,0.,4.8,0.,4.8,0.,4.8,0.,4.8
1979-08-06 21:14:16.790 ,0,1,1.,4.8,4.,4.8,0.,4.8,0.,4.8
1979-08-06 21:14:21.590 ,4,1,2.,4.8,0.,4.8,0.,4.8,0.,4.8
1979-08-06 21:14:26.390 ,4,1,2.,4.8,0.,4.8,1.,4.8,0.,4.8
1979-08-06 21:14:31.190 ,4,1,2.,4.8,0.,4.8,1.,4.8,0.,4.8
1979-08-06 21:14:35.990 ,4,1,2.,4.8,0.,4.8,0.,4.8,0.,4.8
1979-08-06 21:14:40.790 ,4,1,3.,4.8,0.,4.8,2.,4.8,1.,4.8
1979-08-06 21:14:45.590 ,7,1,0.,4.8,1.,4.8,1.,4.8,0.,4.8
1979-08-06 21:14:50.390 ,7,1,2.,4.8,1.,4.8,1.,4.8,0.,4.8
1979-08-06 21:14:55.190 ,7,1,1.,4.8,0.,4.8,0.,4.8,0.,4.8
1979-08-06 21:14:59.990 ,7,1,2.,4.8,0.,4.8,1.,4.8,0.,4.8
1979-08-06 21:15:04.790 ,7,1,3.,4.8,0.,4.8,1.,4.8,0.,4.8
1979-08-06 21:15:09.590 ,3,1,1.,4.8,1.,4.8,0.,4.8,0.,4.8
1979-08-06 21:15:14.390 ,3,1,1.,4.8,1.,4.8,0.,4.8,0.,4.8
1979-08-06 21:15:19.190 ,3,1,2.,4.8,0.,4.8,0.,4.8,0.,4.8
1979-08-06 21:15:23.990 ,3,1,3.,4.8,0.,4.8,1.,4.8,0.,4.8
1979-08-06 21:15:28.790 ,3,1,2.,4.8,0.,4.8,0.,4.8,0.,4.8
1979-08-06 21:15:33.590 ,0,1,3.,4.8,0.,4.8,0.,4.8,0.,4.8
1979-08-06 21:15:38.390 ,0,1,1.,4.8,0.,4.8,0.,4.8,0.,4.8
1979-08-06 21:15:43.190 ,0,1,1.,4.8,0.,4.8,1.,4.8,0.,4.8
1979-08-06 21:15:47.990 ,0,1,4.,4.8,1.,4.8,1.,4.8,0.,4.8
1979-08-06 21:15:52.790 ,0,1,0.,4.8,1.,4.8,1.,4.8,0.,4.8
1979-08-06 21:15:57.590 ,4,1,2.,4.8,3.,4.8,2.,4.8,0.,4.8
1979-08-06 21:16:02.390 ,4,1,2.,4.8,0.,4.8,0.,4.8,0.,4.8
1979-08-06 21:16:07.190 ,4,1,1.,4.8,1.,4.8,1.,4.8,0.,4.8
1979-08-06 21:16:11.990 ,4,1,3.,4.8,0.,4.8,2.,4.8,0.,4.8
1979-08-06 21:16:16.790 ,4,1,2.,4.8,0.,4.8,0.,4.8,0.,4.8
1979-08-06 21:16:21.590 ,7,1,1.,4.8,0.,4.8,2.,4.8,0.,4.8
1979-08-06 21:16:26.390 ,7,1,2.,4.8,0.,4.8,1.,4.8,0.,4.8
1979-08-06 21:16:31.190 ,7,1,4.,4.8,2.,4.8,3.,4.8,0.,4.8
1979-08-06 21:16:35.990 ,7,1,1.,4.8,0.,4.8,0.,4.8,0.,4.8
1979-08-06 21:16:40.790 ,7,1,2.,4.8,0.,4.8,1.,4.8,0.,4.8
1979-08-06 21:16:45.590 ,3,1,1.,4.8,0.,4.8,0.,4.8,0.,4.8
1979-08-06 21:16:50.390 ,3,1,1.,4.8,1.,4.8,1.,4.8,0.,4.8
1979-08-06 21:16:55.190 ,3,1,2.,4.8,1.,4.8,1.,4.8,0.,4.8
1979-08-06 21:16:59.990 ,3,1,1.,4.8,0.,4.8,0.,4.8,0.,4.8
1979-08-06 21:17:04.790 ,3,1,2.,4.8,0.,4.8,1.,4.8,0.,4.8
1979-08-06 21:17:09.590 ,0,1,3.,4.8,0.,4.8,1.,4.8,0.,4.8
1979-08-06 21:17:14.390 ,0,1,4.,4.8,0.,4.8,0.,4.8,0.,4.8
1979-08-06 21:17:19.190 ,0,1,2.,4.8,1.,4.8,0.,4.8,0.,4.8
1979-08-06 21:17:23.990 ,0,1,0.,4.8,2.,4.8,0.,4.8,0.,4.8
1979-08-06 21:17:28.790 ,0,1,1.,4.8,0.,4.8,0.,4.8,0.,4.8
1979-08-06 21:17:33.590 ,0,0,0.,4.8,0.,4.8,0.,4.8,0.,4.8
1979-08-06 21:17:38.390 ,0,0,0.,4.8,0.,4.8,1.,4.8,0.,4.8
1979-08-06 21:17:43.190 ,0,0,4.,4.8,0.,4.8,1.,4.8,0.,4.8
1979-08-06 21:17:47.990 ,0,0,0.,4.8,2.,4.8,1.,4.8,0.,4.8
1979-08-06 21:17:52.790 ,0,0,7.,4.8,0.,4.8,2.,4.8,0.,4.8
1979-08-06 21:17:57.590 ,0,0,3.,4.8,0.,4.8,0.,4.8,0.,4.8
1979-08-06 21:18:02.390 ,0,0,1.,4.8,1.,4.8,1.,4.8,0.,4.8
1979-08-06 21:18:07.190 ,0,0,3.,4.8,0.,4.8,0.,4.8,0.,4.8
1979-08-06 21:18:11.990 ,0,0,1.,4.8,0.,4.8,0.,4.8,0.,4.8
1979-08-06 21:18:16.790 ,0,0,2.,4.8,0.,4.8,0.,4.8,0.,4.8
1979-08-06 21:18:21.590 ,5,0,2.,4.8,0.,4.8,0.,4.8,0.,4.8
1979-08-06 21:18:26.390 ,5,0,1.,4.8,0.,4.8,0.,4.8,0.,4.8
1979-08-06 21:18:31.190 ,5,0,2.,4.8,1.,4.8,0.,4.8,0.,4.8
1979-08-06 21:18:35.990 ,5,0,2.,4.8,0.,4.8,2.,4.8,0.,4.8
1979-08-06 21:18:40.790 ,5,0,1.,4.8,0.,4.8,1.,4.8,0.,4.8
1979-08-06 21:18:45.590 ,5,0,1.,4.8,1.,4.8,0.,4.8,0.,4.8
1979-08-06 21:18:50.390 ,5,0,1.,4.8,0.,4.8,2.,4.8,0.,4.8
1979-08-06 21:18:55.190 ,5,0,3.,4.8,0.,4.8,0.,4.8,0.,4.8
1979-08-06 21:18:59.990 ,5,0,2.,4.8,0.,4.8,0.,4.8,0.,4.8
1979-08-06 21:19:04.790 ,5,0,2.,4.8,1.,4.8,1.,4.8,0.,4.8
1979-08-06 21:19:09.590 ,4,0,3.,4.8,1.,4.8,0.,4.8,0.,4.8
1979-08-06 21:19:14.390 ,4,0,2.,4.8,0.,4.8,0.,4.8,0.,4.8
1979-08-06 21:19:19.190 ,4,0,5.,4.8,0.,4.8,1.,4.8,0.,4.8
1979-08-06 21:19:23.990 ,4,0,5.,4.8,2.,4.8,1.,4.8,0.,4.8
1979-08-06 21:19:28.790 ,4,0,5.,4.8,1.,4.8,0.,4.8,0.,4.8
1979-08-06 21:19:33.590 ,4,0,3.,4.8,0.,4.8,0.,4.8,0.,4.8
1979-08-06 21:19:38.390 ,4,0,1.,4.8,0.,4.8,1.,4.8,0.,4.8
1979-08-06 21:19:43.190 ,4,0,4.,4.8,0.,4.8,2.,4.8,0.,4.8
1979-08-06 21:19:47.990 ,4,0,2.,4.8,0.,4.8,2.,4.8,0.,4.8
1979-08-06 21:19:52.790 ,4,0,0.,4.8,2.,4.8,0.,4.8,0.,4.8
1979-08-06 21:19:57.590 ,3,0,1.,4.8,2.,4.8,4.,4.8,0.,4.8
1979-08-06 21:20:02.390 ,3,0,7.,4.8,3.,4.8,1.,4.8,0.,4.8
1979-08-06 21:20:07.190 ,3,0,1.,4.8,2.,4.8,0.,4.8,0.,4.8
1979-08-06 21:20:11.990 ,3,0,2.,4.8,0.,4.8,0.,4.8,0.,4.8
1979-08-06 21:20:16.790 ,3,0,4.,4.8,0.,4.8,0.,4.8,0.,4.8
1979-08-06 21:20:21.590 ,3,0,0.,4.8,0.,4.8,1.,4.8,0.,4.8
1979-08-06 21:20:26.390 ,3,0,0.,4.8,1.,4.8,1.,4.8,0.,4.8
1979-08-06 21:20:31.190 ,3,0,2.,4.8,0.,4.8,0.,4.8,0.,4.8
1979-08-06 21:20:35.990 ,3,0,2.,4.8,0.,4.8,0.,4.8,0.,4.8
1979-08-06 21:20:40.790 ,3,0,2.,4.8,0.,4.8,0.,4.8,0.,4.8
1979-08-06 21:20:45.590 ,2,0,1.,4.8,0.,4.8,1.,4.8,0.,4.8
1979-08-06 21:20:50.390 ,2,0,0.,4.8,0.,4.8,0.,4.8,0.,4.8
1979-08-06 21:20:55.190 ,2,0,3.,4.8,0.,4.8,0.,4.8,0.,4.8
1979-08-06 21:20:59.990 ,2,0,2.,4.8,0.,4.8,0.,4.8,0.,4.8
1979-08-06 21:21:04.790 ,2,0,2.,4.8,1.,4.8,0.,4.8,0.,4.8
1979-08-06 21:21:09.590 ,2,0,3.,4.8,0.,4.8,0.,4.8,0.,4.8
1979-08-06 21:21:14.390 ,2,0,1.,4.8,1.,4.8,0.,4.8,0.,4.8
1979-08-06 21:21:19.190 ,2,0,5.,4.8,0.,4.8,0.,4.8,0.,4.8
1979-08-06 21:21:23.990 ,2,0,1.,4.8,0.,4.8,0.,4.8,0.,4.8
1979-08-06 21:21:28.790 ,2,0,1.,4.8,0.,4.8,1.,4.8,0.,4.8
1979-08-06 21:21:33.590 ,1,0,4.,4.8,0.,4.8,1.,4.8,0.,4.8
1979-08-06 21:21:38.390 ,1,0,1.,4.8,0.,4.8,0.,4.8,0.,4.8
1979-08-06 21:21:43.190 ,1,0,3.,4.8,1.,4.8,0.,4.8,0.,4.8
1979-08-06 21:21:47.990 ,1,0,3.,4.8,0.,4.8,1.,4.8,0.,4.8
1979-08-06 21:21:52.790 ,1,0,1.,4.8,0.,4.8,2.,4.8,0.,4.8
1979-08-06 21:21:57.590 ,1,0,2.,4.8,1.,4.8,0.,4.8,0.,4.8
1979-08-06 21:22:02.390 ,1,0,1.,4.8,2.,4.8,0.,4.8,0.,4.8
1979-08-06 21:22:07.190 ,1,0,2.,4.8,0.,4.8,0.,4.8,0.,4.8
1979-08-06 21:22:11.990 ,1,0,5.,4.8,0.,4.8,0.,4.8,0.,4.8
1979-08-06 21:22:16.790 ,1,0,4.,4.8,1.,4.8,1.,4.8,0.,4.8
1979-08-06 21:22:21.590 ,0,0,0.,4.8,2.,4.8,0.,4.8,0.,4.8
1979-08-06 21:22:26.390 ,0,0,3.,4.8,0.,4.8,1.,4.8,0.,4.8
1979-08-06 21:22:31.190 ,0,0,2.,4.8,0.,4.8,0.,4.8,0.,4.8
1979-08-06 21:22:35.990 ,0,0,0.,4.8,1.,4.8,1.,4.8,0.,4.8
1979-08-06 21:22:40.790 ,0,0,1.,4.8,0.,4.8,0.,4.8,0.,4.8
1979-08-06 21:22:45.590 ,0,0,0.,4.8,1.,4.8,1.,4.8,0.,4.8
1979-08-06 21:22:50.390 ,0,0,1.,4.8,0.,4.8,0.,4.8,0.,4.8
1979-08-06 21:22:55.190 ,0,0,3.,4.8,0.,4.8,1.,4.8,0.,4.8
1979-08-06 21:22:59.990 ,0,0,1.,4.8,0.,4.8,1.,4.8,0.,4.8
1979-08-06 21:23:04.790 ,0,0,3.,4.8,1.,4.8,0.,4.8,0.,4.8
1979-08-06 21:23:09.590 ,0,0,1.,4.8,1.,4.8,0.,4.8,0.,4.8
1979-08-06 21:23:14.390 ,0,0,0.,4.8,1.,4.8,1.,4.8,0.,4.8
1979-08-06 21:23:19.190 ,0,0,1.,4.8,1.,4.8,4.,4.8,0.,4.8
1979-08-06 21:23:23.990 ,0,0,0.,4.8,0.,4.8,0.,4.8,0.,4.8
1979-08-06 21:23:28.790 ,0,0,2.,4.8,1.,4.8,0.,4.8,0.,4.8
1979-08-06 21:23:33.590 ,0,0,2.,4.8,1.,4.8,1.,4.8,0.,4.8
1979-08-06 21:23:38.390 ,0,0,3.,4.8,0.,4.8,0.,4.8,1.,4.8
1979-08-06 21:23:43.190 ,0,0,2.,4.8,1.,4.8,2.,4.8,0.,4.8
1979-08-06 21:23:47.990 ,0,0,2.,4.8,2.,4.8,0.,4.8,0.,4.8
1979-08-06 21:23:52.790 ,0,0,2.,4.8,1.,4.8,2.,4.8,0.,4.8
1979-08-06 21:23:57.590 ,1,0,1.,4.8,1.,4.8,0.,4.8,0.,4.8
1979-08-06 21:24:02.390 ,1,0,3.,4.8,1.,4.8,0.,4.8,0.,4.8
1979-08-06 21:24:07.190 ,1,0,3.,4.8,5.,4.8,0.,4.8,0.,4.8
1979-08-06 21:24:11.990 ,1,0,2.,4.8,1.,4.8,0.,4.8,0.,4.8
1979-08-06 21:24:16.790 ,1,0,0.,4.8,0.,4.8,0.,4.8,0.,4.8
1979-08-06 21:24:21.590 ,1,0,0.,4.8,1.,4.8,1.,4.8,0.,4.8
1979-08-06 21:24:26.390 ,1,0,4.,4.8,0.,4.8,0.,4.8,0.,4.8
1979-08-06 21:24:31.190 ,1,0,0.,4.8,0.,4.8,2.,4.8,0.,4.8
1979-08-06 21:24:35.990 ,1,0,1.,4.8,1.,4.8,1.,4.8,0.,4.8
1979-08-06 21:24:40.790 ,1,0,2.,4.8,0.,4.8,0.,4.8,0.,4.8
1979-08-06 21:24:45.590 ,2,0,0.,4.8,0.,4.8,0.,4.8,0.,4.8
1979-08-06 21:24:50.390 ,2,0,1.,4.8,2.,4.8,1.,4.8,0.,4.8
1979-08-06 21:24:55.190 ,2,0,0.,4.8,0.,4.8,0.,4.8,0.,4.8
1979-08-06 21:24:59.990 ,2,0,0.,4.8,0.,4.8,0.,4.8,0.,4.8
1979-08-06 21:25:04.790 ,2,0,2.,4.8,3.,4.8,1.,4.8,0.,4.8
1979-08-06 21:25:09.590 ,2,0,1.,4.8,0.,4.8,1.,4.8,0.,4.8
1979-08-06 21:25:14.390 ,2,0,1.,4.8,0.,4.8,0.,4.8,0.,4.8
1979-08-06 21:25:19.190 ,2,0,2.,4.8,1.,4.8,0.,4.8,0.,4.8
1979-08-06 21:25:23.990 ,2,0,2.,4.8,0.,4.8,0.,4.8,0.,4.8
1979-08-06 21:25:28.790 ,2,0,1.,4.8,1.,4.8,1.,4.8,0.,4.8
1979-08-06 21:25:33.590 ,3,0,1.,4.8,0.,4.8,1.,4.8,0.,4.8
1979-08-06 21:25:38.390 ,3,0,0.,4.8,0.,4.8,0.,4.8,0.,4.8
1979-08-06 21:25:43.190 ,3,0,1.,4.8,0.,4.8,0.,4.8,0.,4.8
1979-08-06 21:25:47.990 ,3,0,1.,4.8,0.,4.8,0.,4.8,0.,4.8
1979-08-06 21:25:52.790 ,3,0,3.,4.8,0.,4.8,0.,4.8,0.,4.8
1979-08-06 21:25:57.590 ,3,0,3.,4.8,0.,4.8,0.,4.8,0.,4.8
1979-08-06 21:26:02.390 ,3,0,0.,4.8,0.,4.8,0.,4.8,0.,4.8
1979-08-06 21:26:07.190 ,3,0,1.,4.8,0.,4.8,1.,4.8,0.,4.8
1979-08-06 21:26:11.990 ,3,0,2.,4.8,0.,4.8,0.,4.8,0.,4.8
1979-08-06 21:26:16.790 ,3,0,1.,4.8,0.,4.8,0.,4.8,1.,4.8
1979-08-06 21:26:21.590 ,4,0,2.,4.8,0.,4.8,0.,4.8,0.,4.8
1979-08-06 21:26:26.390 ,4,0,4.,4.8,0.,4.8,0.,4.8,0.,4.8
1979-08-06 21:26:31.190 ,4,0,4.,4.8,0.,4.8,0.,4.8,0.,4.8
1979-08-06 21:26:35.990 ,4,0,2.,4.8,0.,4.8,0.,4.8,0.,4.8
1979-08-06 21:26:40.790 ,4,0,2.,4.8,0.,4.8,0.,4.8,0.,4.8
1979-08-06 21:26:45.590 ,4,0,1.,4.8,0.,4.8,2.,4.8,0.,4.8
1979-08-06 21:26:50.390 ,4,0,3.,4.8,1.,4.8,1.,4.8,0.,4.8
1979-08-06 21:26:55.190 ,4,0,1.,4.8,0.,4.8,0.,4.8,0.,4.8
1979-08-06 21:26:59.990 ,4,0,5.,4.8,0.,4.8,1.,4.8,0.,4.8
1979-08-06 21:27:04.790 ,4,0,3.,4.8,0.,4.8,1.,4.8,0.,4.8
1979-08-06 21:27:09.590 ,5,0,3.,4.8,0.,4.8,1.,4.8,0.,4.8
1979-08-06 21:27:14.390 ,5,0,3.,4.8,0.,4.8,1.,4.8,0.,4.8
1979-08-06 21:27:19.190 ,5,0,3.,4.8,0.,4.8,1.,4.8,0.,4.8
1979-08-06 21:27:23.990 ,5,0,3.,4.8,1.,4.8,0.,4.8,0.,4.8
1979-08-06 21:27:28.790 ,5,0,0.,4.8,0.,4.8,0.,4.8,0.,4.8
1979-08-06 21:27:33.590 ,5,0,1.,4.8,1.,4.8,0.,4.8,0.,4.8
1979-08-06 21:27:38.390 ,5,0,0.,4.8,1.,4.8,1.,4.8,0.,4.8
1979-08-06 21:27:43.190 ,5,0,2.,4.8,0.,4.8,1.,4.8,0.,4.8
1979-08-06 21:27:47.990 ,5,0,1.,4.8,0.,4.8,1.,4.8,0.,4.8
1979-08-06 21:27:52.790 ,5,0,1.,4.8,1.,4.8,2.,4.8,0.,4.8
1979-08-06 21:27:57.590 ,6,0,1.,4.8,0.,4.8,0.,4.8,0.,4.8
1979-08-06 21:28:02.390 ,6,0,2.,4.8,0.,4.8,1.,4.8,0.,4.8
1979-08-06 21:28:07.190 ,6,0,1.,4.8,0.,4.8,0.,4.8,0.,4.8
1979-08-06 21:28:11.990 ,6,0,4.,4.8,0.,4.8,0.,4.8,1.,4.8
1979-08-06 21:28:16.790 ,6,0,0.,4.8,1.,4.8,1.,4.8,0.,4.8
1979-08-06 21:28:21.590 ,6,0,3.,4.8,1.,4.8,2.,4.8,0.,4.8
1979-08-06 21:28:26.390 ,6,0,1.,4.8,3.,4.8,1.,4.8,0.,4.8
1979-08-06 21:28:31.190 ,6,0,1.,4.8,0.,4.8,1.,4.8,0.,4.8
1979-08-06 21:28:35.990 ,6,0,2.,4.8,2.,4.8,0.,4.8,0.,4.8
1979-08-06 21:28:40.790 ,6,0,1.,4.8,0.,4.8,0.,4.8,0.,4.8
1979-08-06 21:28:45.590 ,7,0,7.,4.8,1.,4.8,1.,4.8,0.,4.8
1979-08-06 21:28:50.390 ,7,0,2.,4.8,0.,4.8,0.,4.8,0.,4.8
1979-08-06 21:28:55.190 ,7,0,0.,4.8,1.,4.8,0.,4.8,0.,4.8
1979-08-06 21:28:59.990 ,7,0,2.,4.8,1.,4.8,0.,4.8,0.,4.8
1979-08-06 21:29:04.790 ,7,0,0.,4.8,1.,4.8,2.,4.8,0.,4.8
1979-08-06 21:29:09.590 ,7,0,1.,4.8,1.,4.8,0.,4.8,0.,4.8
1979-08-06 21:29:14.390 ,7,0,1.,4.8,0.,4.8,0.,4.8,0.,4.8
1979-08-06 21:29:19.190 ,7,0,0.,4.8,1.,4.8,2.,4.8,0.,4.8
1979-08-06 21:29:23.990 ,7,0,1.,4.8,1.,4.8,0.,4.8,0.,4.8
1979-08-06 21:29:28.790 ,7,0,1.,4.8,1.,4.8,1.,4.8,0.,4.8
1979-08-06 21:29:33.590 ,7,0,0.,4.8,0.,4.8,0.,4.8,0.,4.8
1979-08-06 21:29:38.390 ,7,0,1.,4.8,0.,4.8,0.,4.8,0.,4.8
1979-08-06 21:29:43.190 ,7,0,1.,4.8,0.,4.8,0.,4.8,0.,4.8
1979-08-06 21:29:47.990 ,7,0,0.,4.8,0.,4.8,0.,4.8,0.,4.8
1979-08-06 21:29:52.790 ,7,0,0.,4.8,1.,4.8,0.,4.8,0.,4.8
1979-08-06 21:29:57.590 ,7,0,1.,4.8,1.,4.8,2.,4.8,0.,4.8
1979-08-06 21:30:02.390 ,7,0,1.,4.8,1.,4.8,1.,4.8,0.,4.8
1979-08-06 21:30:07.190 ,7,0,0.,4.8,1.,4.8,0.,4.8,0.,4.8
1979-08-06 21:30:11.990 ,7,0,2.,4.8,2.,4.8,1.,4.8,0.,4.8
1979-08-06 21:30:16.790 ,7,0,2.,4.8,0.,4.8,1.,4.8,0.,4.8
1979-08-06 21:30:21.590 ,6,0,0.,4.8,1.,4.8,1.,4.8,0.,4.8
1979-08-06 21:30:26.390 ,6,0,3.,4.8,1.,4.8,1.,4.8,0.,4.8
1979-08-06 21:30:31.190 ,6,0,2.,4.8,0.,4.8,3.,4.8,0.,4.8
1979-08-06 21:30:35.990 ,6,0,3.,4.8,0.,4.8,0.,4.8,0.,4.8
1979-08-06 21:30:40.790 ,6,0,1.,4.8,0.,4.8,0.,4.8,0.,4.8
1979-08-06 21:30:45.590 ,6,0,2.,4.8,0.,4.8,0.,4.8,0.,4.8
1979-08-06 21:30:50.390 ,6,0,1.,4.8,0.,4.8,1.,4.8,0.,4.8
1979-08-06 21:30:55.190 ,6,0,1.,4.8,0.,4.8,0.,4.8,0.,4.8
1979-08-06 21:30:59.990 ,6,0,3.,4.8,0.,4.8,0.,4.8,0.,4.8
1979-08-06 21:31:04.790 ,6,0,1.,4.8,0.,4.8,0.,4.8,0.,4.8
1979-08-06 21:31:09.590 ,5,0,2.,4.8,1.,4.8,2.,4.8,0.,4.8
1979-08-06 21:31:14.390 ,5,0,0.,4.8,1.,4.8,0.,4.8,0.,4.8
1979-08-06 21:31:19.190 ,5,0,3.,4.8,0.,4.8,0.,4.8,0.,4.8
1979-08-06 21:31:23.990 ,5,0,2.,4.8,1.,4.8,0.,4.8,0.,4.8
1979-08-06 21:31:28.790 ,5,0,2.,4.8,0.,4.8,0.,4.8,0.,4.8
1979-08-06 21:31:33.590 ,5,0,1.,4.8,1.,4.8,0.,4.8,0.,4.8
1979-08-06 21:31:38.390 ,5,0,2.,4.8,0.,4.8,0.,4.8,0.,4.8
1979-08-06 21:31:43.190 ,5,0,1.,4.8,0.,4.8,0.,4.8,0.,4.8
1979-08-06 21:31:47.990 ,5,0,2.,4.8,0.,4.8,0.,4.8,0.,4.8
1979-08-06 21:31:52.790 ,5,0,2.,4.8,0.,4.8,0.,4.8,0.,4.8
1979-08-06 21:31:57.590 ,4,0,2.,4.8,0.,4.8,2.,4.8,0.,4.8
1979-08-06 21:32:02.390 ,4,0,2.,4.8,0.,4.8,0.,4.8,0.,4.8
1979-08-06 21:32:07.190 ,4,0,4.,4.8,0.,4.8,0.,4.8,0.,4.8
1979-08-06 21:32:11.990 ,4,0,3.,4.8,0.,4.8,1.,4.8,0.,4.8
1979-08-06 21:32:16.790 ,4,0,3.,4.8,0.,4.8,0.,4.8,1.,4.8
1979-08-06 21:32:21.590 ,4,0,3.,4.8,0.,4.8,1.,4.8,0.,4.8
1979-08-06 21:32:26.390 ,4,0,1.,4.8,0.,4.8,1.,4.8,0.,4.8
1979-08-06 21:32:31.190 ,4,0,2.,4.8,0.,4.8,0.,4.8,0.,4.8
1979-08-06 21:32:35.990 ,4,0,0.,4.8,0.,4.8,0.,4.8,0.,4.8
1979-08-06 21:32:40.790 ,4,0,4.,4.8,0.,4.8,2.,4.8,0.,4.8
1979-08-06 21:32:45.590 ,3,0,3.,4.8,0.,4.8,0.,4.8,0.,4.8
1979-08-06 21:32:50.390 ,3,0,2.,4.8,0.,4.8,0.,4.8,0.,4.8
1979-08-06 21:32:55.190 ,3,0,5.,4.8,0.,4.8,0.,4.8,0.,4.8
1979-08-06 21:32:59.990 ,3,0,1.,4.8,0.,4.8,0.,4.8,0.,4.8
1979-08-06 21:33:04.790 ,3,0,0.,4.8,0.,4.8,0.,4.8,0.,4.8
1979-08-06 21:33:09.590 ,3,0,2.,4.8,0.,4.8,0.,4.8,0.,4.8
1979-08-06 21:33:14.390 ,3,0,5.,4.8,0.,4.8,2.,4.8,0.,4.8